Location: Waco, TX
(31.5480°N, 97.1670°W)
Time: 19:08:50
(UTC-05:00)

ISS - Pass Details

Date: 01 October 2022
Orbit: 414 x 417 km, 51.6° (Epoch: 25 September)

Event Time Altitude Azimuth Distance (km) Brightness Sun altitude
Rises 22:55:10 0° 294° (WNW) 2,352 - -46.3°
Reaches altitude 10° 22:57:55 10° 270° (W) 1,486 - -46.8°
Maximum altitude 22:59:53 15° 234° (SW) 1,225 - -47.1°
Drops below altitude 10° 23:01:50 10° 197° (SSW) 1,480 - -47.5°
Sets 23:04:34 0° 173° (S) 2,337 - -48.0°
